Location: Pradons
(44.4746°N, 4.3578°E)
Time: 02:35:21
(UTC+00:00)

Cosmos 2151 - Pass Details

Date: 09 April 2020
Orbit: 582 x 600 km, 82.5° (Epoch: 29 May)

Event Time Altitude Azimuth Distance (km) Brightness Sun altitude
Rises 21:02:20 0° 352° (N) 2,816 7.2 -26.1°
Reaches altitude 10° 21:04:32 10° 353° (N) 1,912 6.2 -26.4°
Enters shadow 21:07:33 46° 358° (N) 792 3.8 -26.8°
